Probability
0 0 0 0 0 0 0 0 0 0 0 0 0 0 0 0 0 0 0 0 0 0 0 0 0 0 0 0 0 0 0 0 0 0 0 0 0 0 0 0 0 0 0
0 0 0 0 0 0 0 0 0 0 0 0 0 0 0 0 0 0 0 0 0 0 0 0 0 0 0 0 0 0 0 0 0 0 0 0 0 0 0 0 0 0 0
0 0 0 0 0 0 0 0 0 0 0 0 0 0 0 0 0 0 0 0 0 0 0 0 0 0 0 0 0 0 0 0 0 0 0 0 0 0 0 0 0 0 0
0 0 0 0 0 0 0 0 0 0 0 0 0 0 0 0 0 0 0 0 0 0 0 0 0 0 0 0 0 0 0 0 0 0 0 0 0 0 0 0 0 0 0
0 0 0 0 0 0 0 0 0 0 0 0 0 0 0 0 0 0 0 0 0 0 0 0 0 0 0 0 0 0 0 0 0 0 0 0 0 0 0 0 0 0 0
0 0 0 0 0 0 0 0 0 0 0 0 0 0 0 0 0 0 0 0 0 0 0 0 0 0 0 0 0 0 0 0 0 0 0 0 0 0 0 0 0 0 0
0 0 0 0 0 0 0 0 0 0 0 0 0 0 0 0 0 0 0 0 0 0 0 0 0 0 0 0 0 0 0 0 0 0 0 0 0 0 0 0 0 0 0
0 0 0 0 0 0 0 0 0 0 0 0 0 0 0 0 0 0 0 0 0 0 0 0 0 0 0 0 0 0 0 0 0 0 0 0 0 0 0 0 0 0 0
0 0 0 0 0 0 0 0 0 0 0 0 0 0 0 0 0 0 0 0 0 0 0 0 0 0 0 0 0 0 0 0 0 0 0 0 0 0 0 0 0 0 0
0 0 0 0 0 0 0 0 0 0 0 0 0 0 0 0 0 0 0 0 0 0 0 0 0 0 0 0 0 0 0 0 0 0 0 0 0 0 0 0 0 0 0
0 0 0 0 0 0 0 0 0 0 0 0 0 0 0 0 0 0 0 0 0 0 0 0 0 0 0 0 0 0 0 0 0 0 0 0 0 0 0 0 0 0 0
0 0 0 0 0 0 0 0 0 0 0 0 0 0 0 0 0 0 0 0 0 0 0 0 0 0 0 0 0 0 0 0 0 0 0 0 0 0 0 0 0 0 0
0 0 0 0 0 0 0 0 0 0 0 0 0 0 0 0 0 0 0 0 0 0 0 0 0 0 0 0 0 0 0 0 0 0 0 0 0 0 0 0 0 0 0
0 0 0 0 0 0 0 0 0 0 0 0 0 0 0 0 0 0 0 0 0 0 0 0 0 0 0 0 0 0 0 0 0 0 0 0 0 0 0 0 0 0 0
0 0 0 0 0 0 0 0 0 0 0 0 0 0 0 0 0 0 0 0 0 0 0 0 0 0 0 0 0 0 0 0 0 0 0 0 0 0 0 0 0 0 0
0 0 0 0 0 0 0 0 0 0 0 0 0 0 0 0 0 0 0 0 0 0 0 0 0 0 0 0 0 0 0 0 0 0 0 0 0 0 0 0 0 0 0
0 0 0 0 0 0 0 0 0 0 0 0 0 0 0 0 0 0 0 0 0 0 0 0 0 0 0 0 0 0 0 0 0 0 0 0 0 0 0 0 0 0 0
0 0 0 0 0 0 0 0 0 0 0 0 0 0 0 0 0 0 0 0 0 0 0 0 0 0 0 0 0 0 0 0 0 0 0 0 0 0 0 0 0 0 0
0 0 0 0 0 0 0 0 0 0 0 0 0 0 0 0 0 0 0 0 0 0 0 0 0 0 0 0 0 0 0 0 0 0 0 0 0 0 0 0 0 0 0
0 0 0 0 0 0 0 0 0 0 0 0 0 0 0 0 0 0 0 0 0 0 0 0 0 0 0 0 0 0 0 0 0 0 0 0 0 0 0 0 0 0 0
0 0 0 0 0 0 0 0 0 0 0 0 0 0 0 0 0 0 0 0 0 0 0 0 0 0 0 0 0 0 0 0 0 0 0 0 0 0 0 0 0 0 0
0 0 0 0 0 0 0 0 0 0 0 0 0 0 0 0 0 0 0 0 0 0 0 0 0 0 0 0 0 0 0 0 0 0 0 0 0 0 0 0 0 0 0
0 0 0 0 0 0 0 0 0 0 0 0 0 0 0 0 0 0 0 0 0 0 0 0 0 0 0 0 0 0 0 0 0 0 0 0 0 0 0 0 0 0 0
0 0 0 0 0 0 0 0 0 0 0 0 0 0 0 0 0 0 0 0 0 0 0 0 0 0 0 0 0 0 0 0 0 0 0 0 0 0 0 0 0 0 0
0 0 0 0 0 0 0 0 0 0 0 0 0 0 0 0 0 0 0 0 0 0 0 0 0 0 0 0 0 0 0 0 0 0 0 0 0 0 0 0 0 0 0
0 0 0 0 0 0 0 0 0 0 0 0 0 0 0 0 0 0 0 0 0 0 0 0 0 0 0 0 0 0 0 0 0 0 0 0 0 0 0 0 0 0 0
Wind_Speed
4 4 7 9 10 10 10 10 11 11 12 13 14 14 15 16 15 15 15 16 17 17 18 18 19 18 19 19 19 19 19 19 19 19 19 20 20 21 21 20 18 14 22
7 6 8 9 11 11 11 11 10 11 11 12 13 14 15 15 15 15 15 15 16 16 17 18 18 18 18 18 18 19 19 19 19 18 17 17 19 20 20 20 19 14 21
9 7 8 10 11 11 11 11 10 11 11 12 14 14 15 15 14 15 15 15 15 16 17 17 17 17 17 17 18 18 18 18 18 17 15 8 13 20 20 20 20 21 21
9 7 7 10 11 11 11 11 11 11 11 12 13 14 14 14 14 14 14 14 14 15 16 16 16 16 16 16 17 17 17 17 17 15 9 8 9 18 20 20 21 21 21
8 7 8 11 12 12 11 11 11 11 11 12 13 14 14 14 14 14 14 13 14 14 15 15 15 16 16 16 17 17 17 17 17 13 8 8 8 18 20 20 20 20 20
7 7 8 11 12 12 11 11 11 11 11 12 13 13 14 14 14 14 13 13 13 13 13 14 15 15 15 16 16 16 16 16 13 8 7 7 8 17 19 19 19 19 19
8 6 8 11 11 12 12 11 11 11 11 12 12 13 13 13 13 13 12 12 12 12 13 13 14 15 15 16 16 16 16 16 9 7 7 6 10 17 18 18 18 18 18
9 7 7 10 11 10 10 11 11 11 11 11 12 12 12 12 12 12 12 12 12 12 12 13 14 15 15 16 16 15 14 12 10 8 6 6 13 16 16 16 16 16 16
7 7 6 6 7 9 9 9 9 9 9 10 11 11 11 11 11 11 10 11 11 11 12 13 14 14 15 15 15 15 14 13 7 5 6 5 12 15 15 15 15 15 15
6 7 6 6 5 5 6 8 9 9 8 9 10 10 9 9 10 9 8 9 11 11 11 12 13 14 14 14 14 14 13 10 6 5 3 6 13 14 14 14 14 14 14
7 7 7 6 6 5 5 6 7 8 8 9 8 10 8 5 5 5 6 8 10 10 11 12 13 13 13 12 13 12 9 4 5 3 3 9 12 12 12 12 12 12 12
11 10 8 8 7 6 5 4 4 4 5 5 5 5 4 4 4 4 7 8 8 8 10 11 12 11 8 5 7 8 3 4 3 2 3 10 11 11 11 11 11 11 11
10 10 9 9 8 7 5 4 3 2 3 4 5 5 4 4 3 3 3 4 4 5 4 6 6 3 3 3 3 3 4 3 2 1 2 8 10 10 10 10 10 10 10
8 11 10 10 9 8 6 5 4 3 3 3 4 6 5 3 3 3 2 3 3 2 3 3 3 3 4 4 4 4 4 2 2 1 1 6 8 9 9 9 9 9 9
10 11 11 11 11 10 8 6 6 5 5 4 4 5 5 5 5 4 3 3 3 3 3 3 3 4 4 3 3 3 3 3 2 2 1 3 6 9 9 9 9 9 9
12 11 10 12 11 10 9 8 7 6 5 5 5 6 6 5 5 5 4 4 3 3 3 3 4 4 3 3 3 2 2 2 2 2 1 1 4 7 10 10 10 10 10
10 9 10 11 11 12 11 10 7 6 6 6 6 6 7 6 6 6 5 5 4 4 4 3 3 3 3 2 2 2 2 2 2 2 1 1 2 4 8 11 11 11 11
8 9 10 9 11 12 11 10 7 7 7 6 6 6 8 7 7 6 6 6 5 5 4 4 4 3 3 3 2 1 1 1 2 2 2 2 2 2 5 10 12 13 13
9 9 10 11 12 12 11 8 8 7 8 7 6 7 8 9 8 7 6 6 6 5 5 5 3 3 4 3 3 2 1 2 2 3 4 4 4 3 3 6 9 11 14
8 9 10 11 11 10 8 7 6 7 8 7 7 8 10 9 10 9 6 7 7 6 6 6 5 3 3 3 2 2 2 3 3 4 5 4 4 5 5 5 4 6 13
9 10 12 12 12 10 8 9 9 10 8 7 7 9 11 11 12 11 8 8 8 8 9 9 5 5 3 3 2 2 3 4 5 6 6 5 7 7 6 6 5 4 5
11 12 13 14 12 12 11 8 5 5 5 6 6 7 10 11 11 10 11 9 9 8 9 9 7 5 4 6 5 3 3 4 8 10 7 8 9 6 8 8 7 7 5
10 12 12 14 13 12 10 5 3 3 2 4 6 8 9 10 11 11 12 10 10 10 10 12 12 11 8 8 6 6 5 8 4 3 8 9 9 8 9 8 10 9 8
8 7 9 9 10 9 9 8 10 9 10 8 6 6 7 9 10 11 11 12 11 10 11 11 13 10 8 8 7 7 5 2 3 4 3 6 8 11 12 10 11 10 10
2 3 5 6 7 7 8 10 10 10 9 4 3 5 6 6 8 10 10 10 11 10 11 10 11 12 10 10 8 6 7 5 3 4 7 4 4 9 11 10 9 9 11
4 2 1 3 4 5 7 8 9 10 8 5 5 5 5 4 5 8 8 9 10 9 10 11 11 13 12 11 10 7 6 6 8 9 12 8 7 6 7 8 10 11 11
Wind_Direction
151 158 139 125 117 110 106 102 99 97 97 97 97 96 94 91 89 88 87 85 85 84 83 82 80 78 78 78 78 78 78 78 78 78 79 80 80 79 77 74 71 68 74
144 148 136 125 119 114 111 108 105 103 102 101 100 99 96 94 93 93 91 89 89 88 88 87 86 84 84 84 84 83 82 79 76 74 73 76 79 79 79 78 77 76 75
134 137 131 125 123 120 116 112 110 109 106 104 102 100 98 97 96 95 94 93 92 90 90 90 90 89 88 88 87 86 84 80 76 71 67 59 74 78 77 75 75 74 74
136 134 131 128 128 125 120 116 114 112 109 107 104 102 100 98 98 97 96 95 93 92 91 92 93 93 92 91 89 87 84 80 75 68 57 54 68 77 76 74 73 73 73
133 132 136 134 133 129 124 121 118 115 112 109 106 105 103 101 100 98 97 95 94 93 93 94 96 96 94 93 91 88 84 80 74 64 56 57 65 77 76 74 73 72 72
132 133 142 140 138 134 129 126 123 120 115 113 109 106 105 104 102 101 100 97 95 95 96 99 100 99 98 96 93 90 87 81 69 58 58 60 69 81 81 79 77 75 74
137 138 146 144 141 139 136 133 130 125 120 117 113 110 109 108 107 106 104 101 98 96 97 102 104 102 100 98 94 92 89 84 71 60 58 61 76 82 83 82 80 79 78
143 142 146 147 145 144 142 139 136 131 126 122 119 116 115 114 113 111 109 107 102 100 101 103 106 103 101 99 96 92 86 81 77 71 66 69 85 85 85 84 83 83 82
143 143 145 147 148 148 145 141 138 134 130 127 124 121 118 117 116 113 113 113 110 106 106 106 107 106 105 103 100 97 91 86 74 70 73 76 91 90 89 88 87 87 86
148 152 151 148 145 143 144 145 141 137 131 125 119 116 115 114 113 110 111 117 115 112 111 111 111 110 109 107 105 99 92 83 74 71 70 92 96 96 94 93 92 92 91
168 167 161 156 151 145 145 148 144 139 132 124 120 120 110 101 102 105 116 118 118 117 117 115 113 111 108 108 106 99 90 82 83 78 87 109 107 104 102 100 99 98 96
183 181 175 169 162 154 151 142 141 134 132 128 128 124 114 112 111 112 119 117 116 117 120 120 115 109 101 93 96 95 86 89 83 85 116 122 117 115 112 110 108 107 105
186 185 184 179 171 166 156 154 149 137 135 139 142 137 128 119 114 107 106 105 102 99 93 103 97 91 98 103 100 97 99 91 89 87 122 131 130 129 127 126 124 120 117
184 192 189 185 181 178 168 170 167 162 162 163 161 153 144 140 139 137 129 124 114 106 110 103 106 107 104 107 115 115 113 110 110 101 135 141 149 148 147 145 142 139 136
193 194 192 189 189 185 180 182 181 181 182 176 168 170 163 160 162 157 152 147 141 133 135 134 132 130 125 120 120 130 135 136 139 134 154 162 167 171 170 167 164 160 156
200 197 192 193 193 191 191 191 191 190 185 178 183 183 176 170 168 167 167 168 166 158 152 151 152 148 145 142 144 148 154 155 164 167 191 220 197 193 193 188 184 181 176
201 194 193 195 194 196 198 198 196 195 189 190 193 188 185 180 176 175 177 183 181 161 150 142 140 136 147 157 168 172 172 187 196 206 218 245 251 229 214 205 201 198 195
197 195 195 193 197 201 201 200 200 199 198 199 195 192 193 189 182 180 187 194 177 165 165 165 162 163 178 183 187 200 211 226 231 239 245 245 246 254 243 223 215 213 210
203 197 195 196 198 201 201 200 202 202 205 204 198 197 197 196 191 191 197 193 175 176 180 180 178 175 185 191 188 196 230 244 248 255 250 247 246 243 244 242 231 224 221
209 202 201 201 202 196 195 198 204 210 211 208 205 203 198 199 197 199 202 192 181 182 187 190 184 178 177 170 174 219 248 250 251 246 245 245 246 244 240 240 239 236 230
211 208 207 206 203 192 195 203 210 217 213 211 211 205 202 201 199 203 204 196 190 196 200 195 178 178 179 145 138 254 268 242 241 240 234 236 239 237 238 236 231 229 236
213 213 212 212 204 200 205 201 201 202 206 210 207 209 208 205 203 204 206 203 199 202 200 192 180 179 181 177 177 173 260 276 241 232 223 229 235 232 235 234 229 226 226
218 214 213 212 209 205 199 176 155 157 173 199 209 215 213 210 207 206 208 207 203 203 206 202 196 190 199 200 197 182 192 235 247 249 230 230 230 228 233 230 231 229 224
231 220 215 212 208 201 188 187 192 203 217 218 211 211 206 208 213 211 210 210 209 208 211 206 204 204 198 203 210 228 230 200 206 274 254 237 233 234 233 230 229 228 225
273 225 212 204 201 190 188 196 202 216 226 215 192 205 209 212 218 218 216 215 216 215 216 209 205 208 210 211 202 202 220 229 224 245 269 257 243 239 236 231 229 227 225
26 40 124 173 186 180 185 194 204 216 219 211 209 212 215 219 224 225 223 225 224 221 219 215 211 212 215 219 217 204 193 200 209 219 246 250 245 238 228 226 227 229 226